Location: Piotrkow Trybunalski
(51.4000°N, 19.6830°E)
Time: 18:50:11
(UTC+01:00)

Vanguard 1 Rocket - Visible Passes

Search period start: 07 February 2023 00:00
Search period end: 17 February 2023 00:00
Orbit: 651 x 4224 km, 34.3° (Epoch: 06 February)

Date Brightness Start Highest point End Pass type
(mag) Time Alt. Az. Time Alt. Az. Time Alt. Az.
07 Feb 12.3 19:10:11 10° WSW 19:15:19 11° SW 19:20:45 10° SW visible
08 Feb 12.2 17:51:18 10° WSW 18:02:43 18° SW 18:16:27 10° S visible
10 Feb 12.3 17:56:45 10° WSW 18:04:20 13° SW 18:12:57 10° SSW visible
